Home   Weather   Rzeszów   Past weeks

Flag for Poland Past Weather in Rzeszów, Poland — Yesterday and Last 2 Weeks

Now
45 °F

Passing clouds.


Feels Like: 41 °F
Forecast: 38 / 59 °F
Wind: 6 mph from Northeast

Location: Rzeszow-Jasionka

Current Time: Apr 30, 2017 at 10:50:12 pm

Latest Report: Apr 30, 2017 at 10:30 pm


Visibility: 5 mi

Pressure: 30.15 "Hg

Humidity: 93%

Dew Point: 43 °F

Location of RzeszówLocation

Past Weather in Rzeszów — Graph

°F

Rzeszów Temperature Yesterday

Maximum temperature yesterday: 50 °F (at 4:30 pm)
Minimum temperature yesterday: 41 °F (at 4:30 am)
Average temperature yesterday: 44 °F

High & Low Weather Summary for the Past Weeks

 TemperatureHumidityPressure
High64 °F (Apr 25, 3:00 pm)100% (Apr 17, 3:30 am)30.33 "Hg (Apr 17, 3:30 am)
Low23 °F (Apr 17, 5:00 am)37% (Apr 17, 4:30 pm)29.68 "Hg (Apr 28, 12:30 pm)
Average43 °F72%29.96 "Hg
* Reported Apr 15 9:00 pm — Apr 30 9:00 pm, Rzeszów, Weather by CustomWeather, © 2017

Note: Actual official high and low records may vary slightly from our data, if they occured in-between our weather recording intervals... More about our weather records

Advertising

Rzeszów Weather History for the Previous 24 Hours

Scroll right to see more
 ConditionsComfort  
Time TempWeatherWind HumidityBarometerVisibility
9:00 pm
Sun, Apr 30
45 °FClear.3 mph93%30.15 "Hg5 mi
8:30 pm46 °FClear.3 mph87%30.15 "Hg4 mi
8:00 pm46 °FClear.1 mph87%30.12 "Hg10 mi
7:30 pm46 °FScattered clouds.2 mph87%30.12 "HgN/A
7:00 pm46 °FScattered clouds.5 mph87%30.12 "HgN/A
6:30 pm46 °FScattered clouds.5 mph87%30.12 "HgN/A
6:00 pm48 °FSunny.2 mph82%30.15 "Hg10 mi
5:30 pm46 °FPassing clouds.2 mph87%30.15 "HgN/A
5:00 pm46 °FPassing clouds.3 mph82%30.15 "HgN/A
4:30 pm46 °FSprinkles. Partly sunny.6 mph93%30.15 "HgN/A
4:00 pm46 °FSprinkles. Partly sunny.7 mph93%30.15 "HgN/A
3:30 pm46 °FSprinkles. Scattered clouds.8 mph93%30.15 "HgN/A
3:00 pm46 °FSprinkles. Scattered clouds.9 mph87%30.15 "HgN/A
2:00 pm50 °FSprinkles. Partly sunny.3 mph67%30.12 "HgN/A
1:30 pm52 °FPartly sunny.2 mph62%30.12 "HgN/A
1:00 pm52 °FPartly sunny.2 mph62%30.12 "HgN/A
12:30 pm52 °FPartly sunny.2 mph62%30.12 "HgN/A
12:00 pm50 °FPartly sunny.2 mph71%30.12 "HgN/A
11:30 am50 °FPartly sunny.5 mph67%30.15 "HgN/A
11:00 am48 °FPartly sunny.6 mph76%30.12 "HgN/A
10:30 am48 °FPartly sunny.6 mph71%30.12 "HgN/A
10:00 am46 °FScattered clouds.6 mph76%30.12 "HgN/A
9:30 am46 °FPassing clouds.5 mph82%30.12 "HgN/A
9:00 am45 °FScattered clouds.7 mph81%30.12 "Hg5 mi
8:30 am45 °FPassing clouds.7 mph87%30.12 "Hg5 mi
8:00 am43 °FPassing clouds.7 mph87%30.09 "Hg5 mi
7:30 am43 °FPassing clouds.6 mph87%30.09 "Hg4 mi
7:00 am41 °FFog.6 mph100%30.09 "Hg2 mi
6:30 am41 °FFog.1 mph93%30.09 "Hg2 mi
6:00 am41 °FFog.2 mph93%30.09 "Hg2 mi
5:30 am41 °FFog.1 mph93%30.09 "Hg2 mi
5:00 am41 °FFog.1 mph93%30.09 "Hg2 mi
4:30 am41 °FFog.2 mph93%30.07 "Hg2 mi
4:00 am41 °FFog.2 mph93%30.07 "Hg2 mi
3:30 am41 °FFog.3 mph93%30.07 "Hg2 mi
3:00 am41 °FFog.2 mph93%30.07 "Hg2 mi
2:30 am41 °FFog.1 mph93%30.07 "Hg2 mi
2:00 am41 °FFog.No wind93%30.07 "Hg3 mi
1:30 am41 °FFog.1 mph93%30.07 "Hg3 mi
1:00 am41 °FFog.1 mph93%30.07 "Hg3 mi
12:30 am41 °FFog.1 mph93%30.07 "Hg3 mi
12:00 am41 °FFog.2 mph93%30.07 "Hg3 mi
11:30 pm
Sat, Apr 29
43 °FClear.2 mph87%30.07 "Hg4 mi
11:00 pm41 °FClear.1 mph93%30.07 "Hg5 mi
10:30 pm43 °FClear.1 mph87%30.04 "Hg5 mi
Weather by CustomWeather, © 2017

See weather overviewHow to use our weather pages